Find Kosmos-921

NORAD ID: 10095 Int'l Des: 1977-055 Owner: YUZH Country: SU operational
LEOCIRCULAR

实时位置

正在加载3D地球...

关于 Kosmos-921

正在加载描述...

即将过境

Passes for default location (London). Set your location on the main map for personalized predictions.

高度历史

Loading altitude history...

两行轨道根数

1 10095U 77055A 26104.64743443 .00000513 00000-0 46255-4 0 9992
2 10095 75.8302 302.2252 0035403 148.2350 212.0992 14.96670341644893
Epoch: Apr 14, 2026 • Age: 9 hours

当前状态

高度 565.6 km
速度 7.60 km/s
星下点 59.37°N, 107.93°W
发射日期 Jun 24, 1977
运行时间 48.8 years
类型 other

技术详情

分类 Payload
质量 1800.00 kg
干质量 1800.00 kg
总质量 1800.00 kg
长度 3.20 m
直径 1.30 m
跨度 3.20 m
形状 Cyl
制造商 YUZH
平台类型 GVM
阶段状态 In Orbit
所有者/国家 YUZH/SU

Most Searched